{"data":{"norad_id":32299,"intl_designator":"2007-057A","name":"ASTRA 4A","alt_names":[],"object_type":"PAYLOAD","status":"ACTIVE","operator":null,"country":"SES","launch_date":"2007-11-17","launch_site_code":"TYMSC","launch_vehicle":null,"mission":null,"orbit_class":"UNKNOWN","rcs_meters":20,"size_class":null,"mass_kg":null,"dimensions":null,"purposes":["comms"],"wikipedia_slug":null,"has_3d_model":false,"image_url":null,"decayed_at":null,"tle_current":{"epoch":"2026-05-25T03:46:02.125056Z","epoch_age_seconds":68290,"freshness":"FRESH","line1":"1 32299U 07057A   26145.15696904  .00000031  00000+0  00000+0 0  9994","line2":"2 32299   0.0181 309.6674 0002455 117.6832 236.7140  1.00274347 51418","mean_motion":1.00274347,"eccentricity":0.0002455,"inclination_deg":0.0181,"raan_deg":309.6674,"arg_perigee_deg":117.6832,"mean_anomaly_deg":236.714,"bstar":0,"rev_number":5141,"period_min":1436.0602118905,"perigee_km":35775.525489503,"apogee_km":35796.228020256,"semimajor_km":42164.013754879,"source":"CELESTRAK","updated_at":"2026-05-25T13:38:14.501261Z"}}}